Location: Hope
(40.9110°N, 74.9680°W)
Time: 04:23:13
(UTC-04:00)

OTV 5 (USA 277) - Visible Passes

Search period start: 21 September 2018 00:00
Search period end: 01 October 2018 00:00
Orbit: 387 x 394 km, 54.5° (Epoch: 08 September)

Date Brightness Start Highest point End Pass type
(mag) Time Alt. Az. Time Alt. Az. Time Alt. Az.
24 Sep ? 05:59:10 10° SSE 06:00:26 12° SE 06:01:42 10° ESE visible
26 Sep ? 05:40:51 10° S 05:43:27 23° SE 05:46:04 10° ENE visible
27 Sep ? 04:47:00 10° SE 04:47:22 10° SE 04:47:44 10° ESE visible
27 Sep ? 06:19:39 10° SW 06:22:50 70° NW 06:26:01 10° NE visible
28 Sep ? 05:25:17 29° S 05:26:31 47° SE 05:29:38 10° ENE visible
29 Sep ? 04:31:32 17° E 04:31:32 17° E 04:32:47 10° E visible
29 Sep ? 06:03:56 16° W 06:06:05 36° NW 06:09:06 10° NE visible
30 Sep ? 05:10:04 65° NNE 05:10:04 65° NNE 05:12:53 10° NE visible
